Regional Weather Roundup
Issued by NWS

Home | Current Version | Previous Version | Text Only | Print | Product List | Glossary Off
Versions: 1 2 3 4 5 6 7 8 9 10 11 12 13 14 15 16 17 18 19 20 21 22 23 24 25 26 27 28 29 30 31 32 33 34 35 36 37 38 39 40 41 42 43 44 45 46 47 48 49 50

000
ASUS45 KPSR 020510
RWRAZ

ARIZONA HOURLY REGIONAL WEATHER ROUNDUP
NATIONAL WEATHER SERVICE PHOENIX AZ
1000 PM MST MON JUN 01 2015

NOTE: FAIR INDICATES FEW OR NO CLOUDS BELOW 12,000 FEET WITH NO
SIGNIFICANT WEATHER AND/OR OBSTRUCTIONS TO VISIBILITY.

AZZ001>003-036-020600-
NORTHWEST ARIZONA

CITY           SKY/WX    TMP DP  RH WIND       PRES   REMARKS
BULLHEAD CITY  PTCLDY    93  19   7 SE20      29.75R
KINGMAN        PTCLDY    75  16  10 S10       29.96R
$$

AZZ004>008-015-016-018-020600-
NORTH CENTRAL ARIZONA

CITY           SKY/WX    TMP DP  RH WIND       PRES   REMARKS
GRAND CANYON   MOCLDY    51  25  36 CALM      30.18R
WILLIAMS       MOCLDY    64  18  16 S9G16     30.27R
PRESCOTT       PTCLDY    72  20  14 S7        30.11R
FLAGSTAFF      MOCLDY    57  25  29 W3        30.23S
PAYSON         CLOUDY    72  19  14 CALM      30.15R
PAGE           MOCLDY    84  16   8 SW8       29.95R
$$

AZZ009>014-017-020600-
NORTHEAST ARIZONA

CITY           SKY/WX    TMP DP  RH WIND       PRES   REMARKS
WINSLOW        MOCLDY    64  21  19 S7        30.10R
SAINT JOHNS    CLEAR     69  14  12 SW13      30.16R
WINDOW ROCK    PTCLDY    61  15  16 SW5       30.21R
SHOW LOW       PTCLDY    61  18  18 S10       30.23S
$$

AZZ023-020600-
GREATER PHOENIX AREA

CITY           SKY/WX    TMP DP  RH WIND       PRES   REMARKS
PHOENIX        MOCLDY    90  29  11 SW7       29.82R
BUCKEYE        CLEAR     82  25  12 NW8       29.83R
LUKE AFB       CLEAR     86  32  14 W5        29.82R
DEER VALLEY    PTCLDY    87  21   9 N3        29.84R
SCOTTSDALE     PTCLDY    90  23   9 CALM      29.87R
$$

AZZ027-028-020600-
SOUTHWEST MARICOPA COUNTY AND PINAL COUNTY

CITY           SKY/WX    TMP DP  RH WIND       PRES   REMARKS
CASA GRANDE    MOCLDY    84  30  14 CALM      29.86R
GILA BEND      CLEAR     85  29  13 S8        29.82R
$$

AZZ503-504-507>509-020600-
SOUTHEAST ARIZONA

CITY           SKY/WX    TMP DP  RH WIND       PRES   REMARKS
TUCSON         CLEAR     85  22  10 S7        30.00R
DAVIS-MONTHAN  CLEAR     82  25  12 S7        29.98R
NOGALES        CLEAR     72  26  18 CALM      30.10R
SIERRA VISTA   CLEAR     78  21  12 W16       30.13S
DOUGLAS        CLEAR     70  22  16 NW9       30.08R
SAFFORD        CLEAR     80  22  11 W9        29.96R
$$

AZZ020-021-025-026-031-020600-
SOUTHWEST ARIZONA

CITY           SKY/WX    TMP DP  RH WIND       PRES   REMARKS
YUMA           MOCLDY    88  29  12 W12       29.81R
$$

CAZ031-033-041-043-047-048-061-020600-
SOUTHERN CALIFORNIA

CITY           SKY/WX    TMP DP  RH WIND       PRES   REMARKS
DOWNTOWN L.A.  CLEAR     62  55  77 CALM      30.00R
L.A. AIRPORT   PTCLDY    61  56  83 W8        30.00R
SAN DIEGO      PTCLDY    63  55  75 NW6       30.02R
BURBANK        CLEAR     65  54  67 SE7       29.99R
ONTARIO        PTCLDY    66  53  63 W10       30.00R
RIVERSIDE      CLEAR     66  54  65 W3        30.01R
PALM SPRINGS   CLEAR     88  31  13 VRB6      29.81R
EL CENTRO NAS  PTCLDY    85  17   8 W17       29.85R
IMPERIAL       PTCLDY    81  27  14 W13       29.81R
BLYTHE         PTCLDY    87  36  16 S9        29.78R
NEEDLES        PTCLDY    93  18   6 SW16      29.76R
$$

NVZ020-UTZ003-020600-
SOUTHERN NEVADA-UTAH

CITY           SKY/WX    TMP DP  RH WIND       PRES   REMARKS
LAS VEGAS      PTCLDY    86  21   9 SW21G30   29.79R
SALT LAKE CITY PTCLDY    66  47  50 W5        29.88R
$$

NMZ009-TXZ055-020600-
NEW MEXICO-WEST TEXAS

CITY           SKY/WX    TMP DP  RH WIND       PRES   REMARKS
ALBUQUERQUE    PTCLDY    72  39  30 SE6       30.11S
EL PASO        MOCLDY    84  43  23 E15       30.03R
$$


........................KEY........................
SKY/WX - SKY CONDITION/WEATHER
TMP    - TEMPERATURE IN FAHRENHEIT
DP     - DEW POINT IN FAHRENHEIT
RH     - RELATIVE HUMIDITY IN PERCENT
WIND   - DIRECTION AND SPEED IN MILES PER HOUR (MPH)
VRB    - VARIABLE WIND DIRECTION
PRES   - MEAN SEA LEVEL PRESSURE IN INCHES OF MERCURY
         F - FALLING PRESSURE   R - RISING PRESSURE
         S - STEADY PRESSURE
VSB    - VISIBILITY IN MILES
HX     - HEAT INDEX IN FAHRENHEIT
WCI    - WIND CHILL INDEX IN FAHRENHEIT
TC     - TEMPERATURE IN CELSIUS WHICH IS ALSO KNOWN AS
         TEMPERATURE IN CENTIGRADE
AFB    - AIR FORCE BASE
         LUKE AFB IS LUKE AIR FORCE BASE
         DAVIS-MONTHAN IS DAVIS-MONTHAN AIR FORCE BASE
NAS    - NAVAL AIR STATION
         EL CENTRO NAS IS EL CENTRO NAVAL AIR STATION
N/A    - NOT AVAILABLE



USA.gov is the U.S. government's official web portal to all federal, state and local government web resources and services.